Retour au catalogue

IRIDIUM 125

ActifCommunicationsPO
NORAD 42964·PAYLOAD·🇺🇸 United States

Lancé Oct 9, 2017 depuis Vandenberg Space Force Base

Loading…

Prochains Passages (prochaines 24 heures)

TLE

FraisSource: CelesTrak SupGP

Époque: Sep 14, 2026, 22:01 UTC

1 42964C 17061K   26257.91770833 -.00001104  00000+0 -39475-3 0  2575
2 42964  86.4031 347.8893 0002619  90.7860   2.0021 14.34218515    19

Suivez IRIDIUM 125 en temps réel avec AllMySat

Download on the App Store